| time (UTC) | temp F | wind direction | speed MPH | gust MPH | rain 1hr in | rain 24hr in | rain mn in | humidity % | barometer mb |
| 20260904184025 | 85 | 0 | 1.0 | 7.0 | 0.00 | 0.21 | 0.04 | 68 | 1013.9 |
| 20260904183829 | 85 | 13 | 1.0 | 6.0 | 0.00 | 0.20 | 0.04 | 67 | 1013.3 |
| 20260904183524 | 85 | 0 | 1.0 | 8.0 | 0.00 | 0.21 | 0.04 | 68 | 1013.9 |
| 20260904183322 | 85 | 242 | 0.0 | 8.0 | 0.00 | 0.20 | 0.04 | 68 | 1013.5 |
| 20260904183046 | 85 | 78 | 0.0 | 8.0 | 0.00 | 0.21 | 0.04 | 68 | 1014.0 |
| 20260904182818 | 85 | 286 | 0.0 | 8.0 | 0.00 | 0.20 | 0.04 | 67 | 1013.5 |
| 20260904182527 | 85 | 80 | 0.0 | 7.0 | 0.00 | 0.21 | 0.04 | 67 | 1014.0 |
| 20260904182330 | 85 | 17 | 0.0 | 6.0 | 0.00 | 0.20 | 0.04 | 67 | 1013.4 |
| 20260904182033 | 85 | 76 | 0.0 | 5.0 | 0.00 | 0.21 | 0.04 | 66 | 1014.0 |
| 20260904181824 | 85 | 250 | 0.0 | 5.0 | 0.00 | 0.20 | 0.04 | 69 | 1013.4 |
| 20260904181546 | 85 | 265 | 0.0 | 5.0 | 0.00 | 0.21 | 0.04 | 67 | 1014.0 |
| 20260904181339 | 85 | 225 | 1.0 | 4.0 | 0.00 | 0.20 | 0.04 | 66 | 1013.5 |
| 20260904181026 | 85 | 0 | 0.0 | 4.0 | 0.00 | 0.21 | 0.04 | 65 | 1014.0 |
| 20260904180815 | 85 | 291 | 0.0 | 4.0 | 0.00 | 0.20 | 0.04 | 69 | 1013.5 |
| 20260904180527 | 85 | 0 | 0.0 | 4.0 | 0.00 | 0.21 | 0.04 | 68 | 1014.0 |
| 20260904180348 | 85 | 85 | 0.0 | 3.0 | 0.00 | 0.20 | 0.04 | 67 | 1013.5 |
| 20260904180047 | 85 | 0 | 0.0 | 6.0 | 0.00 | 0.21 | 0.04 | 68 | 1014.0 |
| 20260904175825 | 86 | 39 | 1.0 | 6.0 | 0.00 | 0.21 | 0.04 | 68 | 1013.5 |
| 20260904175525 | 85 | 0 | 1.0 | 6.0 | 0.00 | 0.21 | 0.04 | 68 | 1014.0 |
| 20260904175339 | 86 | 229 | 1.0 | 6.0 | 0.00 | 0.21 | 0.04 | 69 | 1013.6 |
| 20260904175025 | 85 | 0 | 0.0 | 6.0 | 0.00 | 0.21 | 0.04 | 68 | 1014.1 |
| 20260904174832 | 86 | 17 | 0.0 | 6.0 | 0.00 | 0.21 | 0.04 | 67 | 1013.6 |
| 20260904174546 | 85 | 0 | 0.0 | 5.0 | 0.00 | 0.21 | 0.04 | 66 | 1014.0 |
| 20260904174346 | 86 | 17 | 0.0 | 5.0 | 0.00 | 0.21 | 0.04 | 64 | 1013.6 |
| 20260904174026 | 85 | 0 | 0.0 | 4.0 | 0.00 | 0.21 | 0.04 | 65 | 1014.0 |
| 20260904173818 | 86 | 15 | 0.0 | 4.0 | 0.00 | 0.21 | 0.04 | 65 | 1013.6 |
| 20260904173525 | 85 | 0 | 0.0 | 4.0 | 0.00 | 0.21 | 0.04 | 66 | 1014.2 |
| 20260904173331 | 86 | 221 | 0.0 | 4.0 | 0.00 | 0.21 | 0.04 | 65 | 1013.6 |
| 20260904173042 | 85 | 0 | 0.0 | 5.0 | 0.00 | 0.21 | 0.04 | 64 | 1014.1 |
| 20260904172826 | 86 | 231 | 0.0 | 5.0 | 0.00 | 0.21 | 0.04 | 67 | 1013.6 |
| 20260904172525 | 85 | 0 | 0.0 | 5.0 | 0.00 | 0.21 | 0.04 | 67 | 1014.1 |
| 20260904172320 | 86 | 260 | 0.0 | 5.0 | 0.00 | 0.21 | 0.04 | 67 | 1013.7 |
| 20260904172026 | 85 | 288 | 0.0 | 6.0 | 0.00 | 0.21 | 0.04 | 69 | 1014.2 |
| 20260904171834 | 86 | 268 | 0.0 | 5.0 | 0.00 | 0.21 | 0.04 | 67 | 1013.7 |
| 20260904171558 | 85 | 0 | 0.0 | 6.0 | 0.00 | 0.21 | 0.04 | 66 | 1014.1 |
| 20260904171327 | 86 | 207 | 1.0 | 6.0 | 0.00 | 0.21 | 0.04 | 69 | 1013.8 |
| 20260904171026 | 85 | 0 | 1.0 | 6.0 | 0.00 | 0.21 | 0.04 | 69 | 1014.2 |
| 20260904170820 | 86 | 90 | 0.0 | 5.0 | 0.00 | 0.21 | 0.04 | 71 | 1013.9 |
| 20260904170527 | 85 | 37 | 0.0 | 5.0 | 0.00 | 0.21 | 0.04 | 71 | 1014.3 |
| 20260904170318 | 86 | 232 | 0.0 | 5.0 | 0.00 | 0.21 | 0.04 | 69 | 1013.9 |
| 20260904170052 | 85 | 0 | 1.0 | 5.0 | 0.00 | 0.21 | 0.04 | 68 | 1014.3 |
| 20260904165816 | 86 | 1 | 2.0 | 5.0 | 0.00 | 0.21 | 0.04 | 69 | 1013.9 |
| 20260904165528 | 85 | 0 | 0.0 | 6.0 | 0.00 | 0.21 | 0.04 | 70 | 1014.4 |
| 20260904165333 | 85 | 357 | 0.0 | 6.0 | 0.00 | 0.21 | 0.04 | 69 | 1014.0 |
| 20260904165027 | 85 | 349 | 0.0 | 7.0 | 0.00 | 0.21 | 0.04 | 68 | 1014.4 |
| 20260904164827 | 85 | 11 | 1.0 | 6.0 | 0.00 | 0.21 | 0.04 | 68 | 1014.0 |
| 20260904164545 | 85 | 0 | 0.0 | 7.0 | 0.00 | 0.21 | 0.04 | 67 | 1014.4 |
| 20260904164321 | 85 | 215 | 1.0 | 6.0 | 0.00 | 0.21 | 0.04 | 68 | 1014.0 |
| 20260904164024 | 85 | 0 | 1.0 | 5.0 | 0.00 | 0.21 | 0.04 | 68 | 1014.5 |
| 20260904163815 | 85 | 14 | 0.0 | 3.0 | 0.00 | 0.21 | 0.04 | 70 | 1014.2 |
| 20260904163529 | 85 | 0 | 0.0 | 4.0 | 0.00 | 0.21 | 0.04 | 69 | 1014.6 |
| 20260904163328 | 85 | 2 | 1.0 | 4.0 | 0.00 | 0.21 | 0.04 | 68 | 1014.2 |
| 20260904163044 | 85 | 0 | 0.0 | 4.0 | 0.00 | 0.21 | 0.04 | 70 | 1014.7 |
| 20260904162826 | 85 | 273 | 0.0 | 4.0 | 0.00 | 0.21 | 0.04 | 70 | 1014.3 |
| 20260904162525 | 84 | 0 | 0.0 | 3.0 | 0.00 | 0.21 | 0.04 | 68 | 1014.7 |
| 20260904162320 | 85 | 75 | 0.0 | 3.0 | 0.00 | 0.21 | 0.04 | 71 | 1014.3 |
| 20260904162024 | 84 | 0 | 0.0 | 6.0 | 0.00 | 0.21 | 0.04 | 71 | 1014.9 |
| 20260904161818 | 85 | 11 | 0.0 | 6.0 | 0.00 | 0.21 | 0.04 | 72 | 1014.5 |
| 20260904161542 | 84 | 0 | 0.0 | 6.0 | 0.00 | 0.21 | 0.04 | 71 | 1014.9 |
| 20260904161313 | 85 | 17 | 1.0 | 6.0 | 0.00 | 0.21 | 0.04 | 70 | 1014.4 |
| 20260904161029 | 84 | 0 | 0.0 | 5.0 | 0.00 | 0.21 | 0.04 | 70 | 1014.9 |
| 20260904160851 | 85 | 219 | 1.0 | 5.0 | 0.00 | 0.21 | 0.04 | 73 | 1014.5 |
| 20260904160527 | 84 | 35 | 0.0 | 4.0 | 0.00 | 0.21 | 0.04 | 71 | 1014.9 |
| 20260904160325 | 84 | 191 | 0.0 | 4.0 | 0.00 | 0.21 | 0.04 | 72 | 1014.4 |
| 20260904160052 | 84 | 0 | 0.0 | 5.0 | 0.00 | 0.21 | 0.04 | 71 | 1014.9 |
| 20260904155822 | 84 | 19 | 0.0 | 5.0 | 0.00 | 0.21 | 0.04 | 71 | 1014.4 |
| 20260904155525 | 84 | 0 | 0.0 | 5.0 | 0.00 | 0.21 | 0.04 | 73 | 1014.8 |
| 20260904155318 | 84 | 242 | 0.0 | 5.0 | 0.00 | 0.21 | 0.04 | 73 | 1014.4 |
| 20260904155025 | 83 | 0 | 0.0 | 6.0 | 0.00 | 0.21 | 0.04 | 73 | 1014.8 |
| 20260904154832 | 84 | 281 | 1.0 | 7.0 | 0.00 | 0.21 | 0.04 | 73 | 1014.4 |
| 20260904154547 | 83 | 0 | 0.0 | 7.0 | 0.00 | 0.21 | 0.04 | 74 | 1014.8 |
| 20260904154348 | 83 | 12 | 0.0 | 7.0 | 0.00 | 0.21 | 0.04 | 71 | 1014.4 |
| 20260904154025 | 83 | 0 | 0.0 | 7.0 | 0.00 | 0.21 | 0.04 | 72 | 1014.9 |
| 20260904153822 | 83 | 356 | 1.0 | 3.0 | 0.00 | 0.21 | 0.04 | 72 | 1014.4 |
| 20260904153526 | 82 | 0 | 0.0 | 5.0 | 0.00 | 0.21 | 0.04 | 74 | 1014.8 |
| 20260904153316 | 83 | 355 | 0.0 | 5.0 | 0.00 | 0.21 | 0.04 | 75 | 1014.4 |
| 20260904153045 | 82 | 0 | 0.0 | 5.0 | 0.00 | 0.21 | 0.04 | 74 | 1014.9 |
| 20260904152814 | 83 | 16 | 1.0 | 5.0 | 0.00 | 0.21 | 0.04 | 74 | 1014.5 |
| 20260904152528 | 82 | 0 | 0.0 | 0.0 | 0.00 | 0.21 | 0.04 | 75 | 1014.9 |
| 20260904152333 | 82 | 150 | 0.0 | 0.0 | 0.00 | 0.21 | 0.04 | 76 | 1014.5 |
| 20260904152024 | 82 | 0 | 0.0 | 0.0 | 0.00 | 0.21 | 0.04 | 75 | 1015.0 |
| 20260904151827 | 82 | 150 | 0.0 | 0.0 | 0.00 | 0.21 | 0.04 | 76 | 1014.6 |
| 20260904151554 | 82 | 0 | 0.0 | 1.0 | 0.00 | 0.21 | 0.04 | 77 | 1015.1 |
| 20260904151320 | 82 | 72 | 0.0 | 1.0 | 0.00 | 0.21 | 0.04 | 77 | 1014.6 |
| 20260904151024 | 81 | 0 | 0.0 | 3.0 | 0.00 | 0.21 | 0.04 | 77 | 1015.0 |
| 20260904150854 | 81 | 41 | 0.0 | 2.0 | 0.00 | 0.21 | 0.04 | 76 | 1014.6 |
| 20260904150527 | 81 | 0 | 0.0 | 4.0 | 0.00 | 0.21 | 0.04 | 78 | 1015.1 |
| 20260904150326 | 81 | 70 | 0.0 | 3.0 | 0.00 | 0.21 | 0.04 | 78 | 1014.6 |
| 20260904150048 | 80 | 0 | 0.0 | 4.0 | 0.00 | 0.21 | 0.04 | 78 | 1015.1 |
| 20260904145819 | 81 | 81 | 0.0 | 4.0 | 0.00 | 0.21 | 0.04 | 79 | 1014.7 |
| 20260904145527 | 80 | 0 | 0.0 | 4.0 | 0.00 | 0.21 | 0.04 | 78 | 1015.2 |
| 20260904145316 | 80 | 342 | 0.0 | 3.0 | 0.00 | 0.21 | 0.04 | 79 | 1014.8 |
| 20260904145025 | 80 | 0 | 0.0 | 4.0 | 0.00 | 0.21 | 0.04 | 79 | 1015.4 |
| 20260904144830 | 80 | 352 | 0.0 | 3.0 | 0.00 | 0.21 | 0.04 | 80 | 1014.9 |
| 20260904144544 | 79 | 0 | 0.0 | 4.0 | 0.00 | 0.21 | 0.04 | 79 | 1015.4 |
| 20260904144324 | 80 | 11 | 0.0 | 4.0 | 0.00 | 0.21 | 0.04 | 81 | 1015.0 |
| 20260904144028 | 79 | 0 | 0.0 | 8.0 | 0.00 | 0.21 | 0.04 | 79 | 1015.4 |
| 20260904143838 | 79 | 206 | 0.0 | 8.0 | 0.00 | 0.21 | 0.04 | 81 | 1014.9 |
| 20260904143525 | 79 | 0 | 0.0 | 8.0 | 0.00 | 0.21 | 0.04 | 81 | 1015.4 |
| 20260904143331 | 79 | 9 | 1.0 | 8.0 | 0.00 | 0.21 | 0.04 | 82 | 1014.9 |
| 20260904143044 | 78 | 0 | 0.0 | 6.0 | 0.00 | 0.21 | 0.04 | 83 | 1015.3 |
| 20260904142827 | 79 | 12 | 1.0 | 6.0 | 0.00 | 0.21 | 0.04 | 83 | 1014.8 |
| 20260904142525 | 78 | 0 | 0.0 | 4.0 | 0.00 | 0.21 | 0.04 | 85 | 1015.2 |
| 20260904142326 | 78 | 286 | 0.0 | 4.0 | 0.00 | 0.21 | 0.04 | 84 | 1014.8 |
| 20260904142026 | 77 | 0 | 0.0 | 5.0 | 0.00 | 0.21 | 0.04 | 84 | 1015.2 |
| 20260904141821 | 78 | 251 | 1.0 | 5.0 | 0.00 | 0.21 | 0.04 | 86 | 1014.8 |
| 20260904141556 | 77 | 0 | 0.0 | 5.0 | 0.00 | 0.21 | 0.04 | 87 | 1015.2 |
| 20260904141354 | 77 | 158 | 0.0 | 5.0 | 0.00 | 0.21 | 0.04 | 89 | 1014.8 |
| 20260904141024 | 76 | 0 | 0.0 | 5.0 | 0.00 | 0.21 | 0.04 | 88 | 1015.3 |
| 20260904140828 | 77 | 7 | 0.0 | 1.0 | 0.00 | 0.21 | 0.04 | 89 | 1014.8 |
| 20260904140529 | 76 | 0 | 0.0 | 0.0 | 0.00 | 0.21 | 0.04 | 89 | 1015.3 |
| 20260904140323 | 76 | 109 | 0.0 | 0.0 | 0.00 | 0.21 | 0.04 | 90 | 1014.8 |
| 20260904140103 | 75 | 0 | 0.0 | 0.0 | 0.00 | 0.21 | 0.04 | 90 | 1015.2 |
| 20260904135817 | 76 | 10 | 0.0 | 0.0 | 0.00 | 0.21 | 0.04 | 91 | 1014.8 |
| 20260904135527 | 75 | 0 | 0.0 | 0.0 | 0.00 | 0.21 | 0.04 | 91 | 1015.3 |
| 20260904135350 | 75 | 296 | 0.0 | 0.0 | 0.00 | 0.21 | 0.04 | 91 | 1014.8 |
| 20260904135028 | 74 | 0 | 0.0 | 0.0 | 0.00 | 0.21 | 0.04 | 92 | 1015.2 |
| 20260904134824 | 75 | 291 | 0.0 | 0.0 | 0.00 | 0.21 | 0.04 | 92 | 1014.7 |
| 20260904134545 | 74 | 0 | 0.0 | 0.0 | 0.00 | 0.21 | 0.04 | 92 | 1015.2 |
| 20260904134321 | 74 | 275 | 0.0 | 0.0 | 0.00 | 0.21 | 0.04 | 93 | 1014.7 |
| 20260904134028 | 73 | 0 | 0.0 | 0.0 | 0.00 | 0.21 | 0.04 | 92 | 1015.2 |
| 20260904133815 | 74 | 187 | 0.0 | 0.0 | 0.00 | 0.21 | 0.04 | 94 | 1014.7 |
| 20260904133525 | 73 | 0 | 0.0 | 0.0 | 0.00 | 0.21 | 0.04 | 93 | 1015.0 |
| 20260904133328 | 74 | 85 | 0.0 | 0.0 | 0.00 | 0.21 | 0.04 | 94 | 1014.6 |
| 20260904133049 | 73 | 0 | 0.0 | 0.0 | 0.00 | 0.21 | 0.04 | 94 | 1015.1 |
| 20260904132845 | 73 | 120 | 0.0 | 0.0 | 0.00 | 0.21 | 0.04 | 94 | 1014.6 |
| 20260904132528 | 72 | 0 | 0.0 | 0.0 | 0.00 | 0.21 | 0.04 | 95 | 1015.0 |
| 20260904132318 | 73 | 120 | 0.0 | 0.0 | 0.00 | 0.21 | 0.04 | 96 | 1014.7 |
| 20260904132029 | 72 | 0 | 0.0 | 0.0 | 0.00 | 0.21 | 0.04 | 96 | 1015.2 |
| 20260904131833 | 73 | 120 | 0.0 | 0.0 | 0.00 | 0.21 | 0.04 | 96 | 1014.7 |
| 20260904131546 | 72 | 0 | 0.0 | 0.0 | 0.00 | 0.21 | 0.04 | 95 | 1015.1 |
| 20260904131347 | 73 | 120 | 0.0 | 0.0 | 0.00 | 0.21 | 0.04 | 96 | 1014.6 |
| 20260904131024 | 72 | 0 | 0.0 | 0.0 | 0.00 | 0.21 | 0.04 | 96 | 1015.0 |
| 20260904130820 | 72 | 120 | 0.0 | 0.0 | 0.00 | 0.21 | 0.04 | 97 | 1014.7 |
| 20260904130524 | 72 | 0 | 0.0 | 0.0 | 0.00 | 0.21 | 0.04 | 96 | 1015.1 |
| 20260904130314 | 72 | 120 | 0.0 | 0.0 | 0.00 | 0.21 | 0.04 | 97 | 1014.7 |
| 20260904130054 | 72 | 0 | 0.0 | 0.0 | 0.00 | 0.21 | 0.04 | 97 | 1015.2 |
| 20260904125832 | 72 | 120 | 0.0 | 0.0 | 0.00 | 0.21 | 0.04 | 97 | 1014.9 |
| 20260904125528 | 72 | 0 | 0.0 | 0.0 | 0.00 | 0.21 | 0.04 | 97 | 1015.5 |
| 20260904125326 | 72 | 120 | 0.0 | 0.0 | 0.00 | 0.21 | 0.04 | 97 | 1014.9 |
| 20260904125025 | 72 | 0 | 0.0 | 0.0 | 0.00 | 0.21 | 0.04 | 97 | 1015.4 |
| 20260904124820 | 72 | 120 | 0.0 | 0.0 | 0.00 | 0.21 | 0.04 | 97 | 1014.9 |
| 20260904124550 | 71 | 0 | 0.0 | 0.0 | 0.00 | 0.21 | 0.04 | 97 | 1015.3 |
| 20260904124356 | 72 | 120 | 0.0 | 0.0 | 0.00 | 0.21 | 0.04 | 97 | 1014.8 |
| 20260904124025 | 71 | 0 | 0.0 | 0.0 | 0.00 | 0.21 | 0.04 | 97 | 1015.4 |
| 20260904123849 | 71 | 120 | 0.0 | 0.0 | 0.00 | 0.21 | 0.04 | 97 | 1014.9 |
| 20260904123528 | 71 | 0 | 0.0 | 0.0 | 0.00 | 0.21 | 0.04 | 97 | 1015.3 |
| 20260904123340 | 71 | 120 | 0.0 | 0.0 | 0.00 | 0.21 | 0.04 | 97 | 1014.9 |
| 20260904123044 | 71 | 0 | 0.0 | 0.0 | 0.00 | 0.21 | 0.04 | 97 | 1015.3 |
| 20260904122812 | 71 | 120 | 0.0 | 0.0 | 0.00 | 0.21 | 0.04 | 97 | 1014.8 |
| 20260904122526 | 70 | 0 | 0.0 | 0.0 | 0.00 | 0.21 | 0.04 | 97 | 1015.2 |
| 20260904122331 | 71 | 120 | 0.0 | 0.0 | 0.00 | 0.21 | 0.04 | 97 | 1014.8 |
| 20260904122028 | 70 | 0 | 0.0 | 0.0 | 0.00 | 0.21 | 0.04 | 97 | 1015.1 |
| 20260904121824 | 70 | 120 | 0.0 | 0.0 | 0.00 | 0.21 | 0.04 | 97 | 1014.5 |
| 20260904121544 | 70 | 0 | 0.0 | 0.0 | 0.00 | 0.21 | 0.04 | 97 | 1015.0 |
| 20260904121318 | 70 | 120 | 0.0 | 0.0 | 0.00 | 0.21 | 0.04 | 97 | 1014.6 |
| 20260904121025 | 70 | 0 | 0.0 | 0.0 | 0.00 | 0.21 | 0.04 | 97 | 1015.1 |
| 20260904120816 | 70 | 120 | 0.0 | 0.0 | 0.00 | 0.21 | 0.04 | 97 | 1014.7 |
| 20260904120525 | 70 | 0 | 0.0 | 0.0 | 0.00 | 0.21 | 0.04 | 97 | 1015.0 |
| 20260904120330 | 70 | 120 | 0.0 | 0.0 | 0.00 | 0.21 | 0.04 | 97 | 1014.6 |
| 20260904120055 | 70 | 0 | 0.0 | 0.0 | 0.00 | 0.21 | 0.04 | 96 | 1015.1 |
| 20260904115826 | 70 | 120 | 0.0 | 0.0 | 0.00 | 0.21 | 0.04 | 97 | 1014.7 |
| 20260904115527 | 69 | 0 | 0.0 | 0.0 | 0.00 | 0.21 | 0.04 | 96 | 1015.2 |
| 20260904115320 | 70 | 120 | 0.0 | 0.0 | 0.00 | 0.21 | 0.04 | 97 | 1014.7 |
| 20260904115027 | 69 | 0 | 0.0 | 0.0 | 0.00 | 0.21 | 0.04 | 96 | 1015.0 |
| 20260904114817 | 70 | 120 | 0.0 | 0.0 | 0.00 | 0.21 | 0.04 | 97 | 1014.7 |
| 20260904114546 | 69 | 0 | 0.0 | 0.0 | 0.00 | 0.21 | 0.04 | 97 | 1015.1 |
| 20260904114351 | 70 | 0.0 | 0.0 | 0.00 | 0.21 | 0.04 | 97 | 1014.7 | |
| 20260904114028 | 69 | 0 | 0.0 | 0.0 | 0.00 | 0.21 | 0.04 | 97 | 1015.2 |
| 20260904113827 | 70 | 0.0 | 0.0 | 0.00 | 0.21 | 0.04 | 97 | 1014.8 | |
| 20260904113525 | 69 | 0 | 0.0 | 0.0 | 0.00 | 0.21 | 0.04 | 96 | 1015.2 |
| 20260904113324 | 70 | 0.0 | 0.0 | 0.00 | 0.21 | 0.04 | 97 | 1014.8 | |
| 20260904113045 | 69 | 0 | 0.0 | 0.0 | 0.00 | 0.21 | 0.04 | 96 | 1015.1 |
| 20260904112821 | 70 | 0.0 | 0.0 | 0.00 | 0.21 | 0.04 | 97 | 1014.8 | |
| 20260904112527 | 69 | 0.0 | 0.0 | 0.00 | 0.21 | 0.04 | 96 | 1015.1 | |
| 20260904112318 | 69 | 0.0 | 0.0 | 0.00 | 0.21 | 0.04 | 97 | 1014.7 | |
| 20260904112026 | 69 | 0.0 | 0.0 | 0.00 | 0.21 | 0.04 | 96 | 1015.0 | |
| 20260904111814 | 69 | 0.0 | 0.0 | 0.00 | 0.21 | 0.04 | 97 | 1014.6 | |
| 20260904111546 | 69 | 0.0 | 0.0 | 0.00 | 0.21 | 0.04 | 96 | 1015.0 | |
| 20260904111332 | 69 | 0.0 | 0.0 | 0.00 | 0.21 | 0.04 | 97 | 1014.6 | |
| 20260904111025 | 69 | 0.0 | 0.0 | 0.00 | 0.21 | 0.04 | 96 | 1014.9 | |
| 20260904110829 | 69 | 0.0 | 0.0 | 0.00 | 0.21 | 0.04 | 97 | 1014.5 | |
| 20260904110524 | 69 | 0.0 | 0.0 | 0.00 | 0.21 | 0.04 | 96 | 1015.0 | |
| 20260904110323 | 69 | 0.0 | 0.0 | 0.00 | 0.21 | 0.04 | 97 | 1014.5 | |
| 20260904110043 | 69 | 0.0 | 0.0 | 0.00 | 0.21 | 0.04 | 96 | 1014.7 | |
| 20260904105818 | 69 | 0.0 | 0.0 | 0.00 | 0.21 | 0.04 | 97 | 1014.4 | |
| 20260904105526 | 69 | 0.0 | 0.0 | 0.00 | 0.21 | 0.04 | 96 | 1014.5 | |
| 20260904105313 | 69 | 0.0 | 0.0 | 0.00 | 0.21 | 0.04 | 97 | 1014.2 | |
| 20260904105027 | 69 | 0.0 | 0.0 | 0.00 | 0.21 | 0.04 | 96 | 1014.5 | |
| 20260904104830 | 69 | 0.0 | 0.0 | 0.00 | 0.21 | 0.04 | 97 | 1014.3 | |
| 20260904104549 | 69 | 0.0 | 0.0 | 0.00 | 0.21 | 0.04 | 96 | 1014.5 | |
| 20260904104326 | 69 | 0.0 | 0.0 | 0.00 | 0.21 | 0.04 | 97 | 1014.2 | |
| 20260904104028 | 69 | 0.0 | 0.0 | 0.00 | 0.21 | 0.04 | 96 | 1014.6 | |
| 20260904103827 | 70 | 0.0 | 0.0 | 0.00 | 0.21 | 0.04 | 97 | 1014.3 | |
| 20260904103526 | 69 | 0.0 | 0.0 | 0.00 | 0.21 | 0.04 | 96 | 1014.6 | |
| 20260904103324 | 70 | 0.0 | 0.0 | 0.00 | 0.21 | 0.04 | 97 | 1014.4 | |
| 20260904103046 | 69 | 0.0 | 0.0 | 0.00 | 0.21 | 0.04 | 96 | 1014.8 | |
| 20260904102820 | 70 | 0.0 | 0.0 | 0.00 | 0.21 | 0.04 | 97 | 1014.4 | |
| 20260904102531 | 69 | 0.0 | 0.0 | 0.00 | 0.21 | 0.04 | 96 | 1014.7 | |
| 20260904102313 | 70 | 0.0 | 0.0 | 0.00 | 0.21 | 0.04 | 97 | 1014.1 | |
| 20260904102024 | 69 | 0.0 | 0.0 | 0.00 | 0.21 | 0.04 | 96 | 1014.4 | |
| 20260904101829 | 70 | 0.0 | 0.0 | 0.00 | 0.21 | 0.04 | 97 | 1014.0 | |
| 20260904101543 | 69 | 0.0 | 0.0 | 0.00 | 0.21 | 0.04 | 96 | 1014.3 | |
| 20260904101320 | 70 | 0.0 | 0.0 | 0.00 | 0.21 | 0.04 | 97 | 1014.1 | |
| 20260904101026 | 69 | 0.0 | 0.0 | 0.00 | 0.21 | 0.04 | 96 | 1014.2 | |
| 20260904100825 | 70 | 0.0 | 0.0 | 0.00 | 0.21 | 0.04 | 97 | 1014.0 | |
| 20260904100525 | 69 | 0.0 | 0.0 | 0.00 | 0.21 | 0.04 | 96 | 1014.3 | |
| 20260904100315 | 70 | 0.0 | 0.0 | 0.00 | 0.21 | 0.04 | 97 | 1014.3 | |
| 20260904100042 | 69 | 0.0 | 0.0 | 0.00 | 0.21 | 0.04 | 96 | 1014.4 | |
| 20260904095829 | 70 | 0.0 | 0.0 | 0.00 | 0.21 | 0.04 | 97 | 1014.3 | |
| 20260904095524 | 69 | 0.0 | 0.0 | 0.00 | 0.21 | 0.04 | 96 | 1014.5 | |
| 20260904095322 | 70 | 0.0 | 0.0 | 0.00 | 0.21 | 0.04 | 97 | 1014.3 | |
| 20260904095028 | 69 | 0.0 | 0.0 | 0.00 | 0.21 | 0.04 | 96 | 1014.4 | |
| 20260904094854 | 70 | 0.0 | 0.0 | 0.00 | 0.21 | 0.04 | 97 | 1014.2 | |
| 20260904094546 | 69 | 0.0 | 0.0 | 0.00 | 0.21 | 0.04 | 96 | 1014.4 | |
| 20260904094326 | 70 | 0.0 | 0.0 | 0.00 | 0.21 | 0.04 | 97 | 1014.2 | |
| 20260904094024 | 69 | 0.0 | 0.0 | 0.00 | 0.21 | 0.04 | 96 | 1014.3 | |
| 20260904093817 | 70 | 0.0 | 0.0 | 0.00 | 0.21 | 0.04 | 97 | 1014.3 | |
| 20260904093524 | 69 | 0.0 | 0.0 | 0.00 | 0.21 | 0.04 | 96 | 1014.2 | |
| 20260904093329 | 69 | 0.0 | 0.0 | 0.00 | 0.21 | 0.04 | 97 | 1013.4 | |
| 20260904093049 | 69 | 0.0 | 0.0 | 0.00 | 0.21 | 0.04 | 96 | 1013.6 | |
| 20260904092822 | 70 | 0.0 | 0.0 | 0.00 | 0.21 | 0.04 | 97 | 1013.2 | |
| 20260904092526 | 69 | 0.0 | 0.0 | 0.00 | 0.21 | 0.04 | 96 | 1013.5 | |
| 20260904092317 | 69 | 0.0 | 0.0 | 0.00 | 0.21 | 0.04 | 97 | 1013.2 | |
| 20260904092025 | 69 | 0.0 | 0.0 | 0.00 | 0.21 | 0.04 | 96 | 1013.6 | |
| 20260904091813 | 69 | 0.0 | 0.0 | 0.00 | 0.21 | 0.04 | 97 | 1013.2 | |
| 20260904091551 | 69 | 0.0 | 0.0 | 0.00 | 0.21 | 0.04 | 96 | 1013.6 | |
| 20260904091329 | 69 | 0.0 | 0.0 | 0.00 | 0.21 | 0.04 | 97 | 1013.2 | |
| 20260904091026 | 69 | 0.0 | 0.0 | 0.00 | 0.21 | 0.04 | 96 | 1013.5 | |
| 20260904090823 | 69 | 0.0 | 0.0 | 0.00 | 0.21 | 0.04 | 97 | 1013.1 | |
| 20260904090526 | 69 | 0.0 | 0.0 | 0.00 | 0.21 | 0.04 | 96 | 1013.5 | |
| 20260904090318 | 69 | 0.0 | 0.0 | 0.00 | 0.21 | 0.04 | 97 | 1013.2 | |
| 20260904090046 | 69 | 0.0 | 0.0 | 0.00 | 0.21 | 0.04 | 96 | 1013.6 | |
| 20260904085830 | 69 | 0.0 | 0.0 | 0.00 | 0.21 | 0.04 | 97 | 1013.2 | |
| 20260904085526 | 69 | 0.0 | 0.0 | 0.00 | 0.21 | 0.04 | 96 | 1013.7 | |
| 20260904085326 | 69 | 0.0 | 0.0 | 0.00 | 0.21 | 0.04 | 97 | 1013.3 | |
| 20260904085025 | 69 | 0.0 | 0.0 | 0.00 | 0.21 | 0.04 | 96 | 1013.6 | |
| 20260904084822 | 69 | 0.0 | 0.0 | 0.00 | 0.21 | 0.04 | 97 | 1013.2 | |
| 20260904084544 | 69 | 0.0 | 0.0 | 0.00 | 0.21 | 0.04 | 96 | 1013.5 | |
| 20260904084315 | 69 | 0.0 | 0.0 | 0.00 | 0.21 | 0.04 | 96 | 1013.2 | |
| 20260904084028 | 69 | 0.0 | 0.0 | 0.00 | 0.21 | 0.04 | 96 | 1013.6 | |
| 20260904083525 | 69 | 0.0 | 0.0 | 0.00 | 0.21 | 0.04 | 96 | 1013.7 | |
| 20260904083327 | 69 | 0.0 | 0.0 | 0.00 | 0.21 | 0.04 | 96 | 1013.3 | |
| 20260904083052 | 69 | 0.0 | 0.0 | 0.00 | 0.21 | 0.04 | 96 | 1013.7 | |
| 20260904082818 | 69 | 0.0 | 0.0 | 0.00 | 0.21 | 0.04 | 96 | 1013.2 | |
| 20260904082525 | 69 | 0.0 | 0.0 | 0.00 | 0.21 | 0.04 | 96 | 1013.7 | |
| 20260904082329 | 69 | 0.0 | 0.0 | 0.00 | 0.21 | 0.04 | 96 | 1013.2 | |
| 20260904082027 | 69 | 0.0 | 0.0 | 0.00 | 0.21 | 0.04 | 96 | 1013.8 | |
| 20260904081820 | 69 | 0.0 | 0.0 | 0.00 | 0.21 | 0.04 | 96 | 1013.4 | |
| 20260904081547 | 69 | 0.0 | 0.0 | 0.00 | 0.21 | 0.04 | 96 | 1013.9 | |
| 20260904081353 | 69 | 0.0 | 0.0 | 0.00 | 0.21 | 0.04 | 96 | 1013.4 | |
| 20260904081025 | 69 | 0.0 | 0.0 | 0.00 | 0.21 | 0.04 | 96 | 1013.8 | |
| 20260904080845 | 69 | 0.0 | 0.0 | 0.00 | 0.21 | 0.04 | 96 | 1013.4 | |
| 20260904080524 | 69 | 0.0 | 0.0 | 0.00 | 0.21 | 0.04 | 96 | 1013.9 | |
| 20260904080317 | 69 | 0.0 | 0.0 | 0.00 | 0.21 | 0.04 | 96 | 1013.5 | |
| 20260904080045 | 69 | 0.0 | 0.0 | 0.00 | 0.21 | 0.04 | 96 | 1013.9 | |
| 20260904075828 | 69 | 0.0 | 0.0 | 0.00 | 0.21 | 0.04 | 96 | 1013.5 | |
| 20260904075525 | 69 | 0.0 | 0.0 | 0.00 | 0.21 | 0.04 | 96 | 1014.0 | |
| 20260904075343 | 69 | 0.0 | 0.0 | 0.00 | 0.21 | 0.04 | 96 | 1013.6 | |
| 20260904075025 | 69 | 0.0 | 0.0 | 0.00 | 0.21 | 0.04 | 96 | 1014.2 | |
| 20260904074814 | 69 | 0.0 | 0.0 | 0.00 | 0.21 | 0.04 | 96 | 1013.6 | |
| 20260904074545 | 69 | 0.0 | 0.0 | 0.00 | 0.21 | 0.04 | 96 | 1014.1 | |
| 20260904063055 | 69 | 0.0 | 0.0 | 0.01 | 0.21 | 0.04 | 94 | 1013.6 | |
| 20260904062820 | 70 | 0.0 | 0.0 | 0.01 | 0.21 | 0.04 | 95 | 1013.0 | |
| 20260904062525 | 69 | 0.0 | 0.0 | 0.01 | 0.21 | 0.04 | 94 | 1013.4 | |
| 20260904062314 | 70 | 0.0 | 0.0 | 0.01 | 0.21 | 0.04 | 95 | 1012.9 | |
| 20260904062027 | 69 | 0.0 | 0.0 | 0.01 | 0.21 | 0.04 | 94 | 1013.5 | |
| 20260904061829 | 70 | 0.0 | 0.0 | 0.01 | 0.21 | 0.04 | 95 | 1012.9 | |
| 20260904061547 | 69 | 0.0 | 0.0 | 0.01 | 0.21 | 0.04 | 94 | 1013.4 | |
| 20260904061321 | 70 | 0.0 | 0.0 | 0.01 | 0.21 | 0.04 | 95 | 1013.0 | |
| 20260904061025 | 69 | 0.0 | 0.0 | 0.01 | 0.21 | 0.04 | 95 | 1013.5 | |
| 20260904060812 | 70 | 0.0 | 0.0 | 0.01 | 0.21 | 0.04 | 95 | 1012.9 | |
| 20260904060525 | 69 | 0.0 | 0.0 | 0.01 | 0.21 | 0.04 | 95 | 1013.4 | |
| 20260904060327 | 70 | 0.0 | 0.0 | 0.01 | 0.21 | 0.04 | 95 | 1012.8 | |
| 20260904060043 | 69 | 0.0 | 0.0 | 0.01 | 0.21 | 0.04 | 95 | 1013.4 | |
| 20260904055819 | 70 | 0.0 | 0.0 | 0.01 | 0.21 | 0.04 | 95 | 1012.7 | |
| 20260904055525 | 70 | 0.0 | 0.0 | 0.01 | 0.21 | 0.04 | 94 | 1013.5 | |
| 20260904055351 | 70 | 0.0 | 0.0 | 0.02 | 0.21 | 0.04 | 95 | 1012.9 | |
| 20260904055027 | 70 | 0.0 | 0.0 | 0.02 | 0.21 | 0.04 | 94 | 1013.6 | |
| 20260904054921 | 70 | 0.0 | 0.0 | 0.02 | 0.21 | 0.04 | 95 | 1013.0 | |
| 20260904054546 | 70 | 0.0 | 0.0 | 0.02 | 0.21 | 0.04 | 94 | 1013.6 | |
| 20260904054321 | 70 | 0.0 | 0.0 | 0.01 | 0.20 | 0.03 | 95 | 1013.2 | |
| 20260904054023 | 70 | 0.0 | 0.0 | 0.01 | 0.20 | 0.03 | 94 | 1013.9 | |
| 20260904053835 | 70 | 0.0 | 0.0 | 0.01 | 0.20 | 0.03 | 95 | 1013.3 | |
| 20260904053523 | 70 | 0.0 | 0.0 | 0.01 | 0.20 | 0.03 | 94 | 1013.8 | |
| 20260904053326 | 70 | 0.0 | 0.0 | 0.01 | 0.20 | 0.03 | 95 | 1013.3 | |
| 20260904053053 | 70 | 0.0 | 0.0 | 0.01 | 0.20 | 0.03 | 94 | 1013.9 | |
| 20260904052818 | 71 | 0.0 | 0.0 | 0.01 | 0.20 | 0.03 | 95 | 1013.4 | |
| 20260904052524 | 70 | 0.0 | 0.0 | 0.01 | 0.20 | 0.03 | 94 | 1014.1 | |
| 20260904052350 | 71 | 0.0 | 0.0 | 0.01 | 0.20 | 0.03 | 95 | 1013.7 | |
| 20260904052025 | 70 | 0.0 | 0.0 | 0.01 | 0.20 | 0.03 | 94 | 1014.2 | |
| 20260904051821 | 71 | 0.0 | 0.0 | 0.01 | 0.20 | 0.03 | 95 | 1013.4 | |
| 20260904051559 | 70 | 0.0 | 0.0 | 0.01 | 0.20 | 0.03 | 94 | 1014.0 | |
| 20260904051316 | 71 | 0.0 | 0.0 | 0.01 | 0.20 | 0.03 | 95 | 1013.7 | |
| 20260904051026 | 70 | 0.0 | 0.0 | 0.01 | 0.20 | 0.03 | 94 | 1014.3 | |
| 20260904050830 | 71 | 0.0 | 0.0 | 0.02 | 0.20 | 0.03 | 95 | 1013.7 | |
| 20260904050524 | 70 | 0.0 | 0.0 | 0.02 | 0.20 | 0.03 | 94 | 1014.0 | |
| 20260904050326 | 71 | 0.0 | 0.0 | 0.02 | 0.20 | 0.03 | 95 | 1013.5 | |
| 20260904050044 | 70 | 0.0 | 0.0 | 0.03 | 0.20 | 0.03 | 94 | 1014.2 | |
| 20260904045818 | 71 | 0.0 | 0.0 | 0.03 | 0.20 | 0.03 | 94 | 1013.7 | |
| 20260904045524 | 71 | 0.0 | 0.0 | 0.03 | 0.19 | 0.02 | 94 | 1014.1 | |
| 20260904045312 | 71 | 0.0 | 0.0 | 0.06 | 0.19 | 0.02 | 94 | 1013.6 | |
| 20260904045025 | 71 | 0.0 | 0.0 | 0.12 | 0.19 | 0.02 | 94 | 1014.2 | |
| 20260904044828 | 71 | 0.0 | 0.0 | 0.17 | 0.19 | 0.02 | 94 | 1014.1 | |
| 20260904044545 | 71 | 0.0 | 0.0 | 0.18 | 0.19 | 0.02 | 94 | 1014.7 | |
| 20260904044320 | 71 | 0.0 | 0.0 | 0.18 | 0.19 | 0.02 | 94 | 1014.5 | |
| 20260904044025 | 71 | 0.0 | 0.0 | 0.18 | 0.19 | 0.02 | 93 | 1015.3 | |
| 20260904043813 | 72 | 0.0 | 0.0 | 0.18 | 0.19 | 0.02 | 94 | 1015.0 | |
| 20260904043525 | 71 | 0.0 | 0.0 | 0.18 | 0.19 | 0.02 | 93 | 1015.6 | |
| 20260904043328 | 72 | 0.0 | 0.0 | 0.18 | 0.19 | 0.02 | 94 | 1015.2 | |
| 20260904043045 | 71 | 0.0 | 0.0 | 0.18 | 0.19 | 0.02 | 93 | 1015.6 | |
| 20260904042824 | 72 | 0.0 | 0.0 | 0.18 | 0.19 | 0.02 | 93 | 1015.2 | |
| 20260904042525 | 71 | 0.0 | 0.0 | 0.18 | 0.19 | 0.02 | 92 | 1015.7 | |
| 20260904042028 | 72 | 0.0 | 0.0 | 0.18 | 0.19 | 0.02 | 92 | 1015.8 | |
| 20260904041822 | 72 | 0.0 | 0.0 | 0.18 | 0.19 | 0.02 | 92 | 1015.4 | |
| 20260904041547 | 72 | 0.0 | 0.0 | 0.18 | 0.19 | 0.02 | 91 | 1016.0 | |
| 20260904041337 | 73 | 0.0 | 0.0 | 0.18 | 0.19 | 0.02 | 91 | 1015.6 | |
| 20260904041027 | 72 | 0.0 | 0.0 | 0.18 | 0.19 | 0.02 | 90 | 1016.3 | |
| 20260904040832 | 73 | 0.0 | 0.0 | 0.17 | 0.18 | 0.01 | 90 | 1016.0 | |
| 20260904040526 | 73 | 0.0 | 0.0 | 0.17 | 0.18 | 0.01 | 89 | 1016.5 | |
| 20260904040327 | 74 | 0.0 | 0.0 | 0.17 | 0.18 | 0.01 | 89 | 1016.1 | |
| 20260904040049 | 74 | 0.0 | 0.0 | 0.16 | 0.17 | 0.00 | 87 | 1016.7 | |
| 20260904035818 | 75 | 0.0 | 0.0 | 0.15 | 0.16 | 0.17 | 87 | 1016.2 | |
| 20260904035526 | 75 | 0.0 | 0.0 | 0.14 | 0.15 | 0.15 | 85 | 1016.6 | |
| 20260904035330 | 77 | 0.0 | 0.0 | 0.10 | 0.11 | 0.11 | 84 | 1016.2 | |
| 20260904035028 | 77 | 0.0 | 0.0 | 0.05 | 0.06 | 0.06 | 82 | 1016.8 | |
| 20260904034825 | 79 | 0.0 | 0.0 | 0.01 | 0.02 | 0.02 | 82 | 1016.4 | |
| 20260904034543 | 79 | 0.0 | 0.0 | 0.00 | 0.01 | 0.01 | 80 | 1016.6 | |
| 20260904034321 | 79 | 0.0 | 0.0 | 0.00 | 0.01 | 0.01 | 80 | 1016.2 | |
| 20260904034024 | 79 | 0.0 | 0.0 | 0.00 | 0.01 | 0.01 | 81 | 1016.5 | |
| 20260904033851 | 79 | 0.0 | 0.0 | 0.00 | 0.01 | 0.01 | 83 | 1015.7 | |
| 20260904033524 | 78 | 0.0 | 0.0 | 0.00 | 0.01 | 0.01 | 83 | 1015.0 | |
| 20260904033322 | 79 | 0.0 | 0.0 | 0.00 | 0.01 | 0.01 | 84 | 1014.3 | |
| 20260904033052 | 78 | 0.0 | 0.0 | 0.00 | 0.01 | 0.01 | 84 | 1014.6 | |
| 20260904032816 | 79 | 0.0 | 0.0 | 0.00 | 0.01 | 0.01 | 84 | 1014.3 | |
| 20260904032526 | 78 | 0.0 | 0.0 | 0.00 | 0.01 | 0.01 | 85 | 1014.7 | |
| 20260904032331 | 78 | 0.0 | 0.0 | 0.00 | 0.01 | 0.01 | 85 | 1014.1 | |
| 20260904032028 | 78 | 0.0 | 0.0 | 0.00 | 0.01 | 0.01 | 89 | 1014.6 | |
| 20260904031846 | 78 | 0.0 | 0.0 | 0.00 | 0.01 | 0.01 | 91 | 1014.1 | |
| 20260904031546 | 77 | 0.0 | 0.0 | 0.00 | 0.01 | 0.01 | 91 | 1014.4 | |
| 20260904031320 | 78 | 0.0 | 0.0 | 0.00 | 0.01 | 0.01 | 92 | 1014.0 | |
| 20260904031024 | 77 | 0.0 | 0.0 | 0.00 | 0.01 | 0.01 | 93 | 1014.5 | |
| 20260904030834 | 78 | 0.0 | 0.0 | 0.00 | 0.01 | 0.01 | 93 | 1013.9 | |
| 20260904030528 | 77 | 0.0 | 0.0 | 0.00 | 0.01 | 0.01 | 93 | 1014.2 | |
| 20260904030326 | 78 | 0.0 | 0.0 | 0.00 | 0.01 | 0.01 | 93 | 1013.9 | |
| 20260904030045 | 77 | 0.0 | 0.0 | 0.00 | 0.01 | 0.01 | 93 | 1014.6 | |
| 20260904025838 | 78 | 0.0 | 0.0 | 0.00 | 0.01 | 0.01 | 93 | 1013.7 | |
| 20260904025525 | 77 | 0.0 | 0.0 | 0.00 | 0.01 | 0.01 | 92 | 1014.0 | |
| 20260904025315 | 78 | 0.0 | 0.0 | 0.00 | 0.01 | 0.01 | 93 | 1013.5 | |
| 20260904025025 | 77 | 0.0 | 0.0 | 0.00 | 0.01 | 0.01 | 93 | 1014.1 | |
| 20260904024831 | 78 | 0.0 | 0.0 | 0.00 | 0.01 | 0.01 | 93 | 1013.7 | |
| 20260904024555 | 77 | 0.0 | 0.0 | 0.00 | 0.01 | 0.01 | 1014.1 | ||
| 20260904024026 | 77 | 0.0 | 0.0 | 0.00 | 0.01 | 0.01 | 92 | 1014.3 | |
| 20260904023820 | 78 | 0.0 | 0.0 | 0.00 | 0.01 | 0.01 | 93 | 1013.9 | |
| 20260904023529 | 77 | 0.0 | 0.0 | 0.00 | 0.01 | 0.01 | 92 | 1014.4 | |
| 20260904023316 | 78 | 0.0 | 0.0 | 0.00 | 0.01 | 0.01 | 93 | 1014.0 | |
| 20260904023050 | 78 | 0.0 | 0.0 | 0.00 | 0.01 | 0.01 | 92 | 1014.5 | |
| 20260904022827 | 78 | 0.0 | 0.0 | 0.00 | 0.01 | 0.01 | 92 | 1014.1 | |
| 20260904022527 | 78 | 0.0 | 0.0 | 0.00 | 0.01 | 0.01 | 92 | 1014.6 | |
| 20260904022319 | 78 | 0.0 | 0.0 | 0.00 | 0.01 | 0.01 | 93 | 1014.1 | |
| 20260904022027 | 78 | 0.0 | 0.0 | 0.00 | 0.01 | 0.01 | 92 | 1014.5 | |
| 20260904021814 | 78 | 0.0 | 0.0 | 0.00 | 0.01 | 0.01 | 92 | 1014.1 | |
| 20260904021546 | 78 | 0.0 | 0.0 | 0.00 | 0.01 | 0.01 | 92 | 1014.4 | |
| 20260904021332 | 78 | 0.0 | 0.0 | 0.00 | 0.01 | 0.01 | 92 | 1013.8 | |
| 20260904021032 | 78 | 0.0 | 0.0 | 0.00 | 0.01 | 0.01 | 92 | 1014.1 | |
| 20260904020849 | 78 | 0.0 | 0.0 | 0.00 | 0.01 | 0.01 | 92 | 1013.7 | |
| 20260904020526 | 78 | 0.0 | 0.0 | 0.00 | 0.01 | 0.01 | 92 | 1014.1 | |
| 20260904020324 | 78 | 0.0 | 0.0 | 0.00 | 0.01 | 0.01 | 92 | 1013.8 | |
| 20260904020045 | 78 | 0.0 | 0.0 | 0.00 | 0.01 | 0.01 | 92 | 1014.2 | |
| 20260904015840 | 78 | 0.0 | 0.0 | 0.00 | 0.01 | 0.01 | 92 | 1013.9 | |
| 20260904015525 | 78 | 0.0 | 0.0 | 0.00 | 0.01 | 0.01 | 92 | 1014.3 | |
| 20260904015314 | 78 | 0.0 | 0.0 | 0.00 | 0.01 | 0.01 | 92 | 1013.9 | |
| 20260904015025 | 78 | 0.0 | 0.0 | 0.00 | 0.01 | 0.01 | 92 | 1014.4 | |
| 20260904014830 | 78 | 0.0 | 0.0 | 0.00 | 0.01 | 0.01 | 92 | 1014.0 | |
| 20260904014603 | 78 | 0.0 | 0.0 | 0.00 | 0.01 | 0.01 | 91 | 1014.4 | |
| 20260904014324 | 79 | 0.0 | 0.0 | 0.00 | 0.01 | 0.01 | 92 | 1014.0 | |
| 20260904014026 | 78 | 0.0 | 0.0 | 0.00 | 0.01 | 0.01 | 91 | 1014.4 | |
| 20260904013838 | 79 | 0.0 | 0.0 | 0.00 | 0.01 | 0.01 | 92 | 1013.9 | |
| 20260904013526 | 78 | 0.0 | 0.0 | 0.00 | 0.01 | 0.01 | 91 | 1014.3 | |
| 20260904013313 | 79 | 0.0 | 0.0 | 0.00 | 0.01 | 0.01 | 92 | 1013.9 | |
| 20260904013045 | 78 | 0.0 | 0.0 | 0.00 | 0.01 | 0.01 | 91 | 1014.3 | |
| 20260904012849 | 79 | 0.0 | 0.0 | 0.00 | 0.01 | 0.01 | 92 | 1013.9 | |
| 20260904012527 | 78 | 0.0 | 0.0 | 0.00 | 0.01 | 0.01 | 91 | 1014.1 | |
| 20260904012323 | 79 | 0.0 | 0.0 | 0.00 | 0.01 | 0.01 | 91 | 1013.7 | |
| 20260904012026 | 78 | 0.0 | 0.0 | 0.00 | 0.01 | 0.01 | 91 | 1014.2 | |
| 20260904011840 | 79 | 0.0 | 0.0 | 0.00 | 0.01 | 0.01 | 91 | 1013.8 | |
| 20260904011545 | 78 | 0.0 | 0.0 | 0.00 | 0.01 | 0.01 | 91 | 1014.2 | |
| 20260904011315 | 79 | 0.0 | 0.0 | 0.00 | 0.01 | 0.01 | 91 | 1013.7 | |
| 20260904011045 | 79 | 0.0 | 0.0 | 0.00 | 0.01 | 0.01 | 90 | 1014.1 | |
| 20260904010831 | 79 | 0.0 | 0.0 | 0.00 | 0.01 | 0.01 | 91 | 1013.7 | |
| 20260904010525 | 79 | 0.0 | 0.0 | 0.00 | 0.01 | 0.01 | 90 | 1014.2 | |
| 20260904010327 | 79 | 0.0 | 0.0 | 0.00 | 0.01 | 0.01 | 90 | 1013.7 | |
| 20260904010052 | 79 | 0.0 | 0.0 | 0.00 | 0.01 | 0.01 | 90 | 1014.2 | |
| 20260904005824 | 79 | 0.0 | 0.0 | 0.00 | 0.01 | 0.01 | 90 | 1013.8 | |
| 20260904005530 | 79 | 0.0 | 0.0 | 0.00 | 0.01 | 0.01 | 90 | 1014.3 | |
| 20260904005321 | 79 | 0.0 | 0.0 | 0.00 | 0.01 | 0.01 | 90 | 1013.8 | |
| 20260904005028 | 79 | 0.0 | 0.0 | 0.00 | 0.01 | 0.01 | 89 | 1014.3 | |
| 20260904004851 | 80 | 0.0 | 0.0 | 0.00 | 0.01 | 0.01 | 90 | 1013.8 | |
| 20260904004550 | 79 | 0.0 | 0.0 | 0.00 | 0.01 | 0.01 | 89 | 1014.4 | |
| 20260904004326 | 80 | 0.0 | 0.0 | 0.00 | 0.01 | 0.01 | 90 | 1013.9 | |
| 20260904004025 | 79 | 0.0 | 0.0 | 0.00 | 0.01 | 0.01 | 89 | 1014.4 | |
| 20260904003823 | 80 | 0.0 | 0.0 | 0.00 | 0.01 | 0.01 | 89 | 1013.9 | |
| 20260904003525 | 79 | 0.0 | 0.0 | 0.00 | 0.01 | 0.01 | 89 | 1014.6 | |
| 20260904003318 | 80 | 0.0 | 0.0 | 0.00 | 0.01 | 0.01 | 89 | 1014.2 | |
| 20260904003045 | 79 | 0.0 | 0.0 | 0.00 | 0.01 | 0.01 | 88 | 1014.8 | |
| 20260904002814 | 80 | 0.0 | 0.0 | 0.00 | 0.01 | 0.01 | 89 | 1014.4 | |
| 20260904002530 | 80 | 0.0 | 0.0 | 0.00 | 0.01 | 0.01 | 88 | 1014.9 | |
| 20260904002329 | 80 | 0.0 | 0.0 | 0.00 | 0.01 | 0.01 | 89 | 1014.3 | |
| 20260904002027 | 80 | 0.0 | 0.0 | 0.00 | 0.01 | 0.01 | 88 | 1014.9 | |
| 20260904001825 | 80 | 0.0 | 0.0 | 0.00 | 0.01 | 0.01 | 89 | 1014.3 | |
| 20260904001544 | 80 | 0.0 | 0.0 | 0.00 | 0.01 | 0.01 | 88 | 1014.7 | |
| 20260904001322 | 80 | 0.0 | 0.0 | 0.00 | 0.01 | 0.01 | 88 | 1014.3 | |
| 20260904001025 | 80 | 0.0 | 0.0 | 0.00 | 0.01 | 0.01 | 88 | 1014.8 | |
| 20260904000839 | 81 | 0.0 | 0.0 | 0.00 | 0.01 | 0.01 | 88 | 1014.3 | |
| 20260904000529 | 80 | 0.0 | 0.0 | 0.00 | 0.01 | 0.01 | 87 | 1014.9 | |
| 20260904000335 | 81 | 0.0 | 0.0 | 0.00 | 0.01 | 0.01 | 87 | 1014.3 | |
| 20260904000057 | 80 | 0.0 | 0.0 | 0.00 | 0.01 | 0.01 | 87 | 1014.9 | |
| 20260903235848 | 81 | 0.0 | 0.0 | 0.00 | 0.01 | 0.01 | 87 | 1014.4 | |
| 20260903235528 | 81 | 0.0 | 0.0 | 0.00 | 0.01 | 0.01 | 86 | 1014.9 | |
| 20260903235320 | 81 | 0.0 | 0.0 | 0.00 | 0.01 | 0.01 | 87 | 1014.2 | |
| 20260903235024 | 81 | 0.0 | 0.0 | 0.00 | 0.01 | 0.01 | 86 | 1014.6 | |
| 20260903234853 | 81 | 0.0 | 0.0 | 0.00 | 0.01 | 0.01 | 86 | 1014.0 | |
| 20260903234549 | 81 | 0.0 | 0.0 | 0.00 | 0.01 | 0.01 | 86 | 1014.7 | |
| 20260903234328 | 82 | 0.0 | 0.0 | 0.00 | 0.01 | 0.01 | 86 | 1014.0 | |
| 20260903234025 | 81 | 0.0 | 0.0 | 0.00 | 0.01 | 0.01 | 85 | 1014.4 | |
| 20260903233822 | 82 | 0.0 | 0.0 | 0.00 | 0.01 | 0.01 | 85 | 1013.7 | |
| 20260903233525 | 81 | 0.0 | 0.0 | 0.00 | 0.01 | 0.01 | 85 | 1014.3 | |
| 20260903233334 | 82 | 0.0 | 0.0 | 0.00 | 0.01 | 0.01 | 85 | 1013.6 | |
| 20260903233046 | 82 | 0.0 | 0.0 | 0.00 | 0.01 | 0.01 | 84 | 1014.2 | |
| 20260903232826 | 82 | 0.0 | 0.0 | 0.00 | 0.01 | 0.01 | 84 | 1013.6 | |
| 20260903232525 | 82 | 0.0 | 0.0 | 0.00 | 0.01 | 0.01 | 83 | 1014.2 | |
| 20260903232338 | 83 | 0.0 | 0.0 | 0.00 | 0.01 | 0.01 | 84 | 1013.6 | |
| 20260903232025 | 82 | 0.0 | 0.0 | 0.00 | 0.01 | 0.01 | 83 | 1014.2 | |
| 20260903231829 | 83 | 176 | 0.0 | 0.0 | 0.00 | 0.01 | 0.01 | 83 | 1013.5 |
| 20260903231546 | 83 | 0.0 | 0.0 | 0.00 | 0.01 | 0.01 | 83 | 1014.1 | |
| 20260903231323 | 83 | 176 | 0.0 | 0.0 | 0.00 | 0.01 | 0.01 | 83 | 1013.3 |
| 20260903231026 | 83 | 0 | 0.0 | 0.0 | 0.00 | 0.01 | 0.01 | 82 | 1014.1 |
| 20260903230820 | 84 | 176 | 0.0 | 0.0 | 0.00 | 0.01 | 0.01 | 82 | 1013.5 |
| 20260903230524 | 83 | 0 | 0.0 | 0.0 | 0.00 | 0.01 | 0.01 | 81 | 1014.2 |
| 20260903230333 | 84 | 176 | 0.0 | 0.0 | 0.00 | 0.01 | 0.01 | 81 | 1013.5 |
| 20260903230044 | 84 | 0 | 0.0 | 0.0 | 0.00 | 0.01 | 0.01 | 80 | 1014.1 |
| 20260903225826 | 84 | 176 | 0.0 | 0.0 | 0.00 | 0.01 | 0.01 | 81 | 1013.5 |
| 20260903225524 | 84 | 0 | 0.0 | 0.0 | 0.00 | 0.01 | 0.01 | 80 | 1014.1 |
| 20260903225319 | 85 | 176 | 0.0 | 0.0 | 0.00 | 0.01 | 0.01 | 80 | 1013.4 |
| 20260903225025 | 84 | 0 | 0.0 | 0.0 | 0.00 | 0.01 | 0.01 | 79 | 1014.0 |
| 20260903224815 | 85 | 176 | 0.0 | 0.0 | 0.00 | 0.01 | 0.01 | 79 | 1013.2 |
| 20260903224551 | 85 | 0 | 0.0 | 0.0 | 0.00 | 0.01 | 0.01 | 78 | 1013.9 |
| 20260903224329 | 85 | 176 | 0.0 | 0.0 | 0.00 | 0.01 | 0.01 | 79 | 1013.3 |
| 20260903224025 | 85 | 0 | 0.0 | 0.0 | 0.00 | 0.01 | 0.01 | 78 | 1014.0 |
| 20260903223841 | 86 | 176 | 0.0 | 0.0 | 0.00 | 0.01 | 0.01 | 78 | 1013.2 |
| 20260903223527 | 85 | 0 | 0.0 | 0.0 | 0.00 | 0.01 | 0.01 | 77 | 1013.8 |
| 20260903223317 | 86 | 176 | 0.0 | 0.0 | 0.00 | 0.01 | 0.01 | 77 | 1013.1 |
| 20260903223048 | 86 | 0 | 0.0 | 0.0 | 0.00 | 0.01 | 0.01 | 76 | 1013.8 |
| 20260903222829 | 86 | 176 | 0.0 | 0.0 | 0.00 | 0.01 | 0.01 | 76 | 1013.0 |
| 20260903222523 | 86 | 0 | 0.0 | 0.0 | 0.00 | 0.01 | 0.01 | 75 | 1013.8 |
| 20260903222321 | 87 | 176 | 0.0 | 0.0 | 0.00 | 0.01 | 0.01 | 74 | 1013.2 |
| 20260903222025 | 86 | 0 | 0.0 | 0.0 | 0.00 | 0.01 | 0.01 | 74 | 1013.9 |
| 20260903221855 | 87 | 176 | 0.0 | 0.0 | 0.00 | 0.01 | 0.01 | 75 | 1013.2 |
| 20260903221544 | 87 | 0 | 0.0 | 0.0 | 0.00 | 0.01 | 0.01 | 74 | 1013.9 |
| 20260903221328 | 87 | 176 | 0.0 | 0.0 | 0.00 | 0.01 | 0.01 | 74 | 1013.1 |
| 20260903221024 | 87 | 0 | 0.0 | 1.0 | 0.00 | 0.01 | 0.01 | 74 | 1013.8 |
| 20260903220823 | 87 | 176 | 0.0 | 1.0 | 0.00 | 0.01 | 0.01 | 73 | 1013.0 |
| 20260903220623 | 87 | 0 | 0.0 | 1.0 | 0.00 | 0.01 | 0.01 | 73 | 1013.8 |
| 20260903220317 | 88 | 176 | 0.0 | 1.0 | 0.00 | 0.01 | 0.01 | 72 | 1013.1 |
| 20260903220056 | 87 | 0 | 0.0 | 1.0 | 0.00 | 0.01 | 0.01 | 69 | 1013.8 |
| 20260903215813 | 88 | 176 | 0.0 | 0.0 | 0.00 | 0.01 | 0.01 | 72 | 1013.2 |
| 20260903215525 | 88 | 0 | 0.0 | 1.0 | 0.00 | 0.01 | 0.01 | 71 | 1013.9 |
| 20260903215329 | 88 | 176 | 0.0 | 1.0 | 0.00 | 0.01 | 0.01 | 71 | 1013.2 |
| 20260903215025 | 88 | 0 | 0.0 | 1.0 | 0.00 | 0.01 | 0.01 | 69 | 1013.9 |
| 20260903214821 | 88 | 175 | 0.0 | 1.0 | 0.00 | 0.01 | 0.01 | 70 | 1013.2 |
| 20260903214552 | 88 | 0 | 0.0 | 0.0 | 0.00 | 0.01 | 0.01 | 71 | 1013.8 |
| 20260903214319 | 88 | 177 | 0.0 | 0.0 | 0.00 | 0.01 | 0.01 | 70 | 1013.1 |
| 20260903214025 | 88 | 0 | 0.0 | 2.0 | 0.00 | 0.01 | 0.01 | 72 | 1013.9 |
| 20260903213815 | 89 | 176 | 0.0 | 2.0 | 0.00 | 0.01 | 0.01 | 70 | 1013.1 |
| 20260903213526 | 88 | 0 | 0.0 | 2.0 | 0.00 | 0.01 | 0.01 | 71 | 1013.8 |
| 20260903213331 | 89 | 176 | 0.0 | 2.0 | 0.00 | 0.01 | 0.01 | 71 | 1013.1 |
| 20260903213045 | 88 | 0 | 0.0 | 2.0 | 0.00 | 0.01 | 0.01 | 70 | 1013.9 |
| 20260903212848 | 88 | 167 | 0.0 | 2.0 | 0.00 | 0.01 | 0.01 | 70 | 1013.1 |
| 20260903212524 | 88 | 0 | 0.0 | 3.0 | 0.00 | 0.01 | 0.01 | 70 | 1013.9 |
| 20260903212322 | 88 | 167 | 0.0 | 2.0 | 0.00 | 0.01 | 0.01 | 71 | 1013.1 |
| 20260903212025 | 87 | 191 | 0.0 | 3.0 | 0.00 | 0.01 | 0.01 | 71 | 1013.8 |
| 20260903211836 | 88 | 167 | 0.0 | 3.0 | 0.00 | 0.01 | 0.01 | 72 | 1013.1 |
| 20260903211544 | 87 | 0 | 0.0 | 3.0 | 0.00 | 0.01 | 0.01 | 71 | 1013.9 |
| 20260903211312 | 87 | 167 | 0.0 | 3.0 | 0.00 | 0.01 | 0.01 | 75 | 1013.2 |
| 20260903211025 | 87 | 0 | 0.0 | 3.0 | 0.00 | 0.01 | 0.01 | 74 | 1014.0 |
| 20260903210830 | 87 | 167 | 0.0 | 3.0 | 0.00 | 0.01 | 0.01 | 75 | 1013.3 |
| 20260903210525 | 87 | 0 | 0.0 | 4.0 | 0.00 | 0.01 | 0.01 | 74 | 1014.0 |
| 20260903210342 | 87 | 211 | 0.0 | 4.0 | 0.00 | 0.01 | 0.01 | 73 | 1013.3 |
| 20260903210108 | 87 | 0 | 0.0 | 4.0 | 0.00 | 0.01 | 0.01 | 74 | 1014.0 |
| 20260903205826 | 87 | 211 | 1.0 | 4.0 | 0.00 | 0.01 | 0.01 | 73 | 1013.3 |
| 20260903205524 | 87 | 0 | 0.0 | 4.0 | 0.00 | 0.01 | 0.01 | 72 | 1014.0 |
| 20260903205320 | 87 | 161 | 0.0 | 4.0 | 0.00 | 0.01 | 0.01 | 72 | 1013.3 |
| 20260903205027 | 87 | 0 | 0.0 | 4.0 | 0.00 | 0.01 | 0.01 | 71 | 1014.0 |
| 20260903204816 | 87 | 160 | 0.0 | 4.0 | 0.00 | 0.01 | 0.01 | 75 | 1013.4 |
| 20260903204608 | 87 | 184 | 0.0 | 3.0 | 0.00 | 0.01 | 0.01 | 74 | 1014.2 |
| 20260903204329 | 87 | 161 | 0.0 | 3.0 | 0.00 | 0.01 | 0.01 | 74 | 1013.5 |
| 20260903204027 | 86 | 0 | 0.0 | 3.0 | 0.00 | 0.01 | 0.01 | 72 | 1014.1 |
| 20260903203841 | 87 | 140 | 1.0 | 2.0 | 0.00 | 0.01 | 0.01 | 72 | 1013.5 |
| 20260903203525 | 86 | 0 | 0.0 | 3.0 | 0.00 | 0.01 | 0.01 | 72 | 1014.2 |
| 20260903203353 | 87 | 168 | 0.0 | 3.0 | 0.00 | 0.01 | 0.01 | 73 | 1013.5 |
| 20260903203046 | 86 | 0 | 0.0 | 5.0 | 0.00 | 0.01 | 0.01 | 72 | 1014.3 |
| 20260903202824 | 87 | 142 | 0.0 | 3.0 | 0.00 | 0.01 | 0.01 | 73 | 1013.6 |
| 20260903202528 | 86 | 0 | 0.0 | 6.0 | 0.00 | 0.01 | 0.01 | 72 | 1014.3 |
| 20260903202322 | 86 | 158 | 1.0 | 5.0 | 0.00 | 0.01 | 0.01 | 74 | 1013.8 |
| 20260903202030 | 86 | 0 | 0.0 | 6.0 | 0.00 | 0.01 | 0.01 | 73 | 1014.4 |
| 20260903201814 | 86 | 194 | 0.0 | 2.0 | 0.00 | 0.01 | 0.01 | 73 | 1013.8 |
| 20260903201544 | 85 | 0 | 0.0 | 2.0 | 0.00 | 0.01 | 0.01 | 74 | 1014.4 |
| 20260903201330 | 86 | 198 | 0.0 | 2.0 | 0.00 | 0.01 | 0.01 | 77 | 1014.0 |
| 20260903201028 | 85 | 0 | 0.0 | 2.0 | 0.00 | 0.01 | 0.01 | 74 | 1014.5 |
| 20260903200822 | 86 | 198 | 0.0 | 2.0 | 0.00 | 0.01 | 0.01 | 74 | 1014.0 |
| 20260903200525 | 85 | 0 | 0.0 | 5.0 | 0.00 | 0.01 | 0.01 | 74 | 1014.7 |
| 20260903200334 | 86 | 198 | 0.0 | 3.0 | 0.00 | 0.01 | 0.01 | 74 | 1014.2 |
| 20260903200101 | 85 | 0 | 0.0 | 7.0 | 0.00 | 0.01 | 0.01 | 74 | 1014.7 |
| 20260903195827 | 86 | 198 | 0.0 | 7.0 | 0.00 | 0.01 | 0.01 | 73 | 1014.3 |
| 20260903195525 | 85 | 0 | 1.0 | 7.0 | 0.00 | 0.01 | 0.01 | 73 | 1014.8 |
| 20260903195340 | 86 | 145 | 1.0 | 7.0 | 0.00 | 0.01 | 0.01 | 74 | 1014.3 |
| 20260903195026 | 85 | 0 | 0.0 | 4.0 | 0.00 | 0.01 | 0.01 | 75 | 1014.9 |
| 20260903194831 | 86 | 341 | 0.0 | 4.0 | 0.00 | 0.01 | 0.01 | 76 | 1014.4 |
| 20260903194549 | 85 | 0 | 0.0 | 4.0 | 0.00 | 0.01 | 0.01 | 73 | 1015.0 |
| 20260903194322 | 86 | 296 | 1.0 | 4.0 | 0.00 | 0.01 | 0.01 | 74 | 1014.5 |
| 20260903194030 | 85 | 0 | 0.0 | 4.0 | 0.00 | 0.01 | 0.01 | 73 | 1015.0 |
| 20260903193818 | 86 | 190 | 0.0 | 2.0 | 0.00 | 0.01 | 0.01 | 75 | 1014.6 |
| 20260903193525 | 85 | 0 | 0.0 | 2.0 | 0.00 | 0.01 | 0.01 | 73 | 1015.0 |
| 20260903193329 | 85 | 190 | 0.0 | 2.0 | 0.00 | 0.01 | 0.01 | 75 | 1014.7 |
| 20260903193055 | 85 | 0 | 0.0 | 3.0 | 0.00 | 0.01 | 0.01 | 73 | 1015.1 |
| 20260903192820 | 85 | 193 | 0.0 | 3.0 | 0.00 | 0.01 | 0.01 | 77 | 1014.7 |
| 20260903192525 | 84 | 0 | 0.0 | 4.0 | 0.00 | 0.01 | 0.01 | 75 | 1015.2 |
| 20260903192332 | 84 | 227 | 0.0 | 4.0 | 0.00 | 0.01 | 0.01 | 77 | 1014.8 |
| 20260903192025 | 84 | 0 | 0.0 | 4.0 | 0.00 | 0.01 | 0.01 | 76 | 1015.3 |
| 20260903191824 | 84 | 319 | 1.0 | 4.0 | 0.00 | 0.01 | 0.01 | 77 | 1014.9 |
| 20260903191555 | 84 | 14 | 0.0 | 3.0 | 0.00 | 0.01 | 0.01 | 75 | 1015.3 |
| 20260903191355 | 84 | 190 | 0.0 | 1.0 | 0.00 | 0.01 | 0.01 | 78 | 1014.9 |
| 20260903191025 | 83 | 0 | 0.0 | 0.0 | 0.00 | 0.01 | 0.01 | 77 | 1015.4 |
| 20260903190827 | 84 | 190 | 0.0 | 0.0 | 0.00 | 0.01 | 0.01 | 77 | 1015.0 |
| 20260903190525 | 83 | 0 | 0.0 | 1.0 | 0.00 | 0.01 | 0.01 | 77 | 1015.5 |
| 20260903190322 | 84 | 190 | 0.0 | 0.0 | 0.00 | 0.01 | 0.01 | 78 | 1015.1 |
| 20260903190055 | 83 | 0 | 0.0 | 1.0 | 0.00 | 0.01 | 0.01 | 78 | 1015.6 |
| 20260903185818 | 83 | 182 | 0.0 | 1.0 | 0.00 | 0.20 | 0.01 | 77 | 1015.2 |
| 20260903185528 | 83 | 0 | 0.0 | 3.0 | 0.00 | 0.16 | 0.01 | 76 | 1015.6 |
| 20260903185354 | 83 | 180 | 0.0 | 3.0 | 0.00 | 0.20 | 0.01 | 78 | 1015.2 |
| 20260903185028 | 83 | 0 | 0.0 | 3.0 | 0.00 | 0.16 | 0.01 | 76 | 1015.7 |
| 20260903184826 | 83 | 180 | 0.0 | 3.0 | 0.00 | 0.20 | 0.01 | 77 | 1015.4 |
| 20260903184547 | 83 | 0 | 0.0 | 2.0 | 0.00 | 0.16 | 0.01 | 76 | 1015.8 |
| 20260903184319 | 83 | 190 | 0.0 | 2.0 | 0.00 | 0.20 | 0.01 | 77 | 1015.4 |